www.pogodaiklimat.ru

Погода и климат >> Архив погоды >> Россия >> Камчатский край >> Петропавловск-Камч. 2


ПОГОДА в Петропавловск-Камч. 2

  • Прогноз погоды в Петропавловск-Камч. 2
  • Монитор погоды в Петропавловск-Камч. 2

АРХИВ ПОГОДЫ в Петропавловск-Камч. 2

Время (UTC), дата Ветер
(напр.,м/с)
 
Видим.   Явления Облачность Т
(С)
Тd
(С)
f
(%)
Тe
(С)
Тes
(С)
Комфортность P
(гПа)
Po
(гПа)
Тmin
(С)
Tmax
(С)
R
(мм)
R24
(мм)
S
(см)
12 14.05 СЗ 3 50 км ясно +6.2 -1.7 57 +4 +4 1001.9 991.7
15 14.05 С 3 50 км ясно +5.1 -2.4 58 +2 +2 1000.7 990.5
18 14.05 СЗ 2 50 км 3/3 600 м
[Sc]
+2.7 -3.8 62 0 0 1000.9 990.5
21 14.05 СЗ 4
{11}
50 км 9/5 600 м
[Sc Ci fib]
+9.0 -5.2 36 +7 +8 1001.2 991.1 +1.9
00 15.05 СЗ 3
{12}
50 км 9/8 600 м
[Sc Ac lent Ci fib]
+11.2 -4.9 32 +10 +12 1002.8 992.8
03 15.05 Ю 4 50 км 9/6 600 м
[Cb calv Ac trans]
+9.5 -0.7 49 +7 +9 1005.3 995.2
06 15.05 Ю 4 50 км 9/8 600 м
[Sc Ac trans]
+6.6 +0.1 63 +3 +4 1008.6 998.4
09 15.05 ЮВ 2 50 км 9/8 1000 м
[Sc Ac trans]
+4.6 +0.2 73 +2 +2 1010.9 1000.6 +11.9
12 15.05 В 1 20 км 9/9 1000 м
[Sc]
+4.6 +0.3 74 +3 +3 1013.4 1003.0
15 15.05 В 1 20 км слаб. ливневой дождь 9/9 600 м
[Cb cap]
+3.9 +1.0 81 +3 +3 1014.9 1004.5
18 15.05 С 1 50 км {ливн. осадки} 8/1 600 м
[Sc Ac trans Ci fib]
+2.2 +0.1 86 +1 +1 1016.3 1005.8
21 15.05 ЮВ 1 50 км 8/3 600 м
[Sc Ac trans Ci fib]
+7.3 +0.9 64 +7 +10 1017.8 1007.5 +1.7 0.0
00 16.05 Ю 3 50 км 6/4 1000 м
[Sc Ci fib]
+9.1 +1.2 58 +7 +14 1018.8 1008.5
03 16.05 Ю 4 50 км 9/3 1000 м
[Sc Ci fib]
+8.5 +1.5 61 +6 +11 1019.8 1009.5
06 16.05 Ю 3 50 км 9/9 600 м
[Sc]
+6.3 +1.3 70 +3 +4 1020.9 1010.5
09 16.05 В 3 50 км 8/4 600 м
[Sc Ac und]
+4.6 +0.3 74 +1 +1 1022.0 1011.6 +9.6
12 16.05 В 2 20 км 9/3 600 м
[Sc Ac trans]
+3.3 -0.1 78 0 0 1023.7 1013.2
15 16.05 СВ 1 20 км н/о +1.0 -1.4 84 -1 -1 1024.4 1013.8
18 16.05 СВ 1 50 км 6/4 600 м
[Sc Ac trans]
-0.5 -1.9 90 -3 -3 1025.3 1014.6
21 16.05 З 1 50 км 4/1 600 м
[Sc Ac trans Ci sp]
+4.9 +0.2 72 +4 +9 1025.4 1014.9 -0.6
00 17.05 ЮВ 3 50 км 3/1 1000 м
[Cu med, cong Ci fib]
+9.0 +1.6 60 +7 +17 опасность
простуды
1024.7 1014.4
03 17.05 ЮВ 4 50 км 1/1 1000 м
[Cu med, cong]
+10.9 +1.8 53 +9 +17 1024.3 1014.0
06 17.05 В 5 50 км 4/1 1000 м
[Cu med, cong Ci fib]
+8.6 +0.6 57 +5 +8 1024.1 1013.8
09 17.05 ЮВ 4 50 км 3/1 600 м
[Cu Sc Ci fib]
+4.7 +0.9 76 +1 +1 1025.5 1015.0 +11.0
12 17.05 штиль 0 20 км 10/1 600 м
[Sc As trans]
+1.5 -0.1 89 0 0 1025.5 1014.9
15 17.05 С 2 20 км {туман} 3/1 300 м
[St Ci fib]
+1.9 +0.4 90 -1 -1 1025.0 1014.4
18 17.05 С 2 50 км {снег, туман} 3/0
[Ci fib]
+4.4 -1.2 67 +2 +2 1024.3 1013.8
21 17.05 ЮВ 4 50 км 3/1 600 м
[Cu Sc Ci fib]
+4.7 +0.9 76 +1 +4 1025.5 1015.0 +11.0
00 18.05 ЮЗ 3 50 км ясно +14.6 -1.2 34 +14 +26 опасность
простуды
1021.4 1011.3
03 18.05 ЮЗ 4-10
{10}
50 км ясно +17.3 -1.8 27 +17 +27 1020.3 1010.3
06 18.05 З 3
{10}
50 км 8/0
[Cs]
+16.1 -2.6 28 +16 +20 1019.6 1009.5
09 18.05 З 3
{10}
50 км 1/0
[Ci fib]
+12.0 -2.7 36 +11 +11 1020.0 1009.8 +17.8
12 18.05 СЗ 1 50 км 3/0
[Ci fib]
+7.7 -2.2 49 +7 +7 1020.9 1010.5
15 18.05 СЗ 2 50 км 3/0
[Ci fib]
+6.3 -2.7 53 +5 +5 1019.7 1009.3
18 18.05 С 2 50 км 10/0
[Ac und]
+7.3 -4.3 43 +6 +6 1018.6 1008.2
21 18.05 СЗ 1 20 км слаб. ливневой дождь 10/6 600 м
[Cb cap Ac As]
+9.8 -2.2 43 +10 +11 1017.8 1007.6 +5.8 0.0
00 19.05 СЗ 1 20 км слаб. ливневой дождь 10/8 600 м
[Cb cap Ac As]
+8.6 +6.1 84 +8 +9 1016.0 1005.8
03 19.05 ЮЗ 2 20 км {ливн. осадки} 9/5 1000 м
[Sc Ac trans]
+11.3 +6.3 71 +10 +14 1013.0 1002.9
06 19.05 В 6 50 км {ливн. осадки} 9/4 600 м
[Sc Ac trans]
+10.9 +4.9 66 +8 +9 1009.1 999.0
09 19.05 ЮВ 2
{12}
20 км слаб. ливневой дождь 10/10 600 м
[Cb cap]
+5.2 +3.5 89 +3 +3 1007.9 997.6 +12.5 4
12 19.05 СЗ 1 20 км {ливн. осадки} 8/8 600 м
[Sc]
+6.7 +5.1 90 +6 +6 1007.9 997.6
15 19.05 СЗ 2 50 км 3/3 600 м
[Sc]
+7.5 +2.8 72 +6 +6 1006.5 996.3
18 19.05 С 3 50 км 8/3 600 м
[Cb calv Ac trans Ci]
+8.5 +2.5 66 +6 +6 1006.0 995.9
21 19.05 С 2 50 км слаб. ливневой дождь 9/8 600 м
[Sc Ac trans]
+10.7 +4.1 64 +10 +10 1006.0 995.9 +5.1 0.4
00 20.05 З 2 50 км в посл. час ливневой дождь 6/4 600 м
[Cb calv Ac lent Ci fib]
+15.3 +3.5 45 +15 +23 1005.2 995.3
03 20.05 З 3
{12}
50 км 3/3 1000 м
[Sc Ci fib]
+16.5 -0.2 32 +16 +25 1005.3 995.4
06 20.05 З 3-11
{13}
50 км 8/4 1000 м
[Sc Ci fib]
+14.4 +0.4 38 +14 +16 1006.2 996.3
09 20.05 СЗ 2
{11}
50 км 3/1 600 м
[Sc Ac trans Ci fib]
+12.1 +0.5 45 +12 +12 1007.7 997.7 +17.1 0.0
12 20.05 С 1 20 км 3/0
[Ci fib]
+9.3 -0.5 50 +9 +9 1008.7 998.5
15 20.05 СЗ 2 50 км 4/0
[Ci fib]
+8.1 -0.1 56 +7 +7 1009.6 999.4
21 20.05 З 1 50 км 8/0
[Ac trans Ci fib]
+13.0 +1.4 45 +13 +18 1012.6 1002.5 +5.3
00 21.05 В 6-11
{12}
50 км 9/1 600 м
[Sc Ac trans Ci fib]
+11.8 +2.2 52 +9 +12 1015.1 1005.0

 

Местоположение метеостанции Петропавловск-Камч. 2 (Камчатский край, Россия): широта 53.08 долгота 158.50 высота над уровнем моря 84 м.

В архиве по умолчанию представлена погода в Петропавловск-Камч. 2 за последнюю неделю. Архивные данные за месяц целиком и за предыдущие месяцы, начиная с января 2011 года, Вы можете получить, выбрав интересующий диапазон дат из раскрывающегося списка и нажав кнопку "Ввод!".


*Определитесь, кто Вы:
робот инопланетянин человек

Внимание! Время в таблицах - всемирное. Для получения местного времени необходимо прибавить поправку, которая равна 12 ч.

Смотрите также архив погоды в соседних городах и на ближайших метеорологических станциях:

Погода в Сосновке (Камчатский край, Россия) (13 км)
Погода в Петропавловск-Камчатском (Камчатский край, Россия) (24 км)
Погода в Петропавловском Маяке (Камчатский край, Россия) (26 км)
Погода в Начиках (Камчатский край, Россия) (54 км)
Погода в Пущино (Камчатский край, Россия) (127 км)
Погода в Водопадной (Камчатский край, Россия) (144 км)
Погода в Семячике (Камчатский край, Россия) (148 км)
Погода в Большерецке (Камчатский край, Россия) (150 км)
Погода в Мильково (Камчатский край, Россия) (178 км)
Погода в Соболево (Камчатский край, Россия) (218 км)

Пояснения к столбцам:

Ветер - указаны скорость ветра в м/с - средняя за 10 мин, порывы в срок и между сроками (в фигурных скобках) и направление, откуда дует ветер: С - северный, СВ - северо-восточный, В - восточный, ЮВ - юго-восточный, Ю - южный, ЮЗ - юго-западный, З - западный, СЗ - северо-западный.
Видимость - горизонтальная дальность видимости в метрах или километрах. При видимости от 1 до 10 км при отсутствии осадков обычно наблюдается дымка, при ухудшении видимости до 1 км и менее - туман. В сухую погоду видимость может ухудшаться дымом, пылью или мглою.
Явления - указаны атмосферные явления, наблюдавшиеся в срок или в последний час перед сроком; фигурными скобками обозначены явления, наблюдавшиеся между сроками (за 1-3 часа до срока); квадратными скобками обозначены град или гололедные отложения с указанием их диаметра в мм.
Облачность - указаны через наклонную черту общая и нижняя облачность в баллах и высота нижней границы облаков в метрах; квадратными скобками обозначены формы облаков: Ci - перистые, Cs - перисто-слоистые, Cc - перисто-кучевые, Ac - высококучевые, As - высокослоистые, Sc - слоисто-кучевые, Ns - слоисто-дождевые, Cu - кучевые, Cb - кучево-дождевые. Подробнее классификацию облаков см. в Атласе облаков (PDF).
T - Температура воздуха - температура, измеренная на высоте 2 м над землей.
Td - Температура точки росы - температура, при понижении до которой содержащийся в воздухе водяной пар достигнет насыщения.
f - Относительная влажность воздуха - влажноcть воздуха, измеренная на высоте 2 м над землей.
Te - Эффективная температура - температура, которую ощущает одетый по сезону человек в тени. Характеристика душности погоды. При расчете учитывается влияние влажности воздуха и скорости ветра на теплоощущения человека.
Tes - Эффективная температура на солнце - температура, которую ощущает человек, с поправкой на солнечный нагрев. Характеристика знойности погоды. Зависит от высоты солнца над горизонтом, облачности и скорости ветра. Ночью, в пасмурную погоду, а также при ветре 12 м/с и более поправка равна нулю.
P - Атмосферное давление - приведенное к уровню моря атмосферное давление.
Po - Атмосферное давление - измеренное на уровне метеостанции атмосферное давление.
Tmin - Минимальная температура - минимум температуры воздуха на высоте 2 м над землей.
Tmax - Максимальная температура - максимум температуры воздуха на высоте 2 м над землей.
R - Количество осадков - Количество выпавших осадков за период времени, мм. При наведении курсора мыши на число - период времени, за который выпало указанное количество осадков.
R24 - Количество осадков - Количество выпавших осадков за 24 часа, мм.
S - Снежный покров - Высота снежного покрова, см. При наведении курсора мыши на число - состояние снежного покрова и степень покрытия местности в баллах.